Tracking 19149 objects as of 20-Apr-2018
HD Live streaming from Space Station
objects crossing your sky now

INTERBALL AURORA

Track INTERBALL AURORA now!
10-day predictions
INTERBALL AURORA is classified as:


NORAD ID: 24293
Int'l Code: 1996-050C
Perigee: 1,346.8 km
Apogee: 18,640.2 km
Inclination: 63.5 °
Period: 347.2 minutes
Semi major axis: 16364 km
RCS: 12.5524 m2 (large)
Launch date: August 29, 1996
Source: Commonwealth of Independent States (former USSR) (CIS)
Launch site: PLESETSK MISSILE AND SPACE COMPLEX (PKMTR)
aabbcc
Your satellite tracking list
Your tracking list is empty




NASA's NSSDC Master Catalog

Two Line Element Set (TLE):
1 24293U 96050C   18109.27479552 +.00000023 +00000-0 +00000-0 0  9995
2 24293 063.5147 112.1545 5283815 237.0079 061.1196 04.14714015327695
Source of the keplerian elements: AFSPC